Location: Zagreb
(45.8000°N, 16.0000°E)
Time: 15:02:50
(UTC+02:00)

Tiros 1 despin weight - Pass Details

Date: 13 August 2022
Orbit: 590 x 639 km, 48.2° (Epoch: 23 September)

Event Time Altitude Azimuth Distance (km) Brightness Sun altitude
Rises 17:00:12 0° 288° (WNW) 2,833 ? 31.3°
Reaches altitude 10° 17:02:30 10° 287° (WNW) 1,925 ? 30.9°
Maximum altitude 17:06:54 80° 201° (SSW) 603 ? 30.1°
Drops below altitude 10° 17:11:17 10° 115° (ESE) 1,913 ? 29.4°
Sets 17:13:33 0° 114° (ESE) 2,814 ? 29.0°
